Skip Page Navigation
NASA JPL Caltech
NASA Logo - Jet Propulsion Laboratory + View the NASA Portal
+ Near-Earth Object (NEO) Program
Search JPL
JPL Home Earth Solar System Stars & Galaxies Technology
JPL Solar System Dynamics
BODIES ORBITS EPHEMERIDES TOOLS PHYSICAL DATA DISCOVERY FAQ SITE MAP
JPL Small-Body Database Browser
Search: [ help ]  
16626 Thumper (1993 HJ3)
Classification: Main-belt Asteroid          SPK-ID: 2016626
Ephemeris | Orbit Diagram | Orbital Elements | Physical Parameters | Discovery Circumstances ]

[ show orbit diagram ]
Orbital Elements at Epoch 2457400.5 (2016-Jan-13.0) TDB
Reference: JPL 12 (heliocentric ecliptic J2000)
 Element Value Uncertainty (1-sigma)   Units 
e .02746118397238298 4.5835e-08  
a 2.899159510958723 2.2726e-08 au
q 2.819545158263002 1.3903e-07 au
i 3.199994262185915 4.9569e-06 deg
node 104.4925854494974 9.2598e-05 deg
peri 359.5481679501661 0.00014014 deg
M 306.5485120837665 0.00010618 deg
tp 2457668.209566818503
(2016-Oct-06.70956682)
0.00053269 JED
period 1803.04511271409
4.94
2.1201e-05
5.805e-08
d
yr
n .1996622255657811 2.3477e-09 deg/d
Q 2.978773863654445 2.335e-08 au
  Orbit Determination Parameters
   # obs. used (total)      1190  
   data-arc span      12410 days (33.98 yr)  
   first obs. used      1981-12-20  
   last obs. used      2015-12-12  
   planetary ephem.      DE431  
   SB-pert. ephem.      SB431-BIG16  
   condition code      0  
   fit RMS      .50256  
   data source      ORB  
   producer      Otto Matic  
   solution date      2016-Jan-04 13:34:24  

Additional Information
 Earth MOID = 1.83618 au 
 Jupiter MOID = 2.04963 au 
 T_jup = 3.285 
[ show covariance matrix ]

Ephemeris | Orbit Diagram | Orbital Elements | Physical Parameters | Discovery Circumstances ]

Physical Parameter Table
Parameter Symbol Value Units Sigma Reference Notes
absolute magnitude H 13.7 mag n/a MPO347654  
rotation period rot_per 6.8127 h n/a LCDB (Rev. 2015-December); Warner et al., 2009 Result based on less than full coverage, so that the period may be wrong by 30 percent or so.
Published Reference List:
[Waszczak, A.; Chang, C.-K.; Ofeck, E.O.; Laher, F.; et al. (2015) Astron. J. 150, A75.]

16626 Thumper           Discovered 1993 Apr. 20 by Spacewatch at Kitt Peak.
Thumper was a fictional young rabbit in Walt Disney's 1942 animated film, Bambi. Thumper's wisecracks and antics have been comic relief for generations of children the world over. The name was suggested by R. Jedicke and P. Jedicke.
NOTE: some special characters may not display properly (any characters within {} are an attempt to place the proper accent above a character)
Reference: 20050919/MPCPages.arcLast Updated: 2005-09-26

Alternate Designations
 1993 HJ3 = 1981 YJ 
Ephemeris | Orbit Diagram | Orbital Elements | Physical Parameters | Discovery Circumstances ]
ABOUT SSD CREDITS/AWARDS PRIVACY/COPYRIGHT GLOSSARY LINKS
FirstGov 2016-Feb-11 04:27 UT
(server date/time)  
NASA Home Page
Site Manager:   Ryan S. Park
Webmaster  Alan B. Chamberlin